Other Public Products
Issued by NWS Charleston, SC

Current Version | Previous Version | Text Only | Print | Product List | Glossary Off
Versions: 1 2 3 4 5 6 7 8 9 10 11 12 13 14 15 16 17 18 19 20 21 22 23 24 25 26 27 28 29 30 31 32 33 34 35 36 37 38 39 40 41 42 43 44 45 46 47 48 49 50

652
FPUS82 KCHS 212213
OPUCHS

TEST...KCHS/KSAV Gateway Observations...TEST
National Weather Service Charleston SC
500 PM EST WED FEB 21 2018

NOTE: "fair" indicates few or no clouds below 12,000 feet with no
significant weather and/or obstructions to visibility.

SCZ050-WAZ558-NCZ071-TXZ119-213-PAZ071-DCZ001-FLZ074-172-MI076-
NYZ176-178-MAZ016-IL014-TNZ027-NJZ106-GAZ044-MD014-212300-

...Gateway Observations for Charleston International...

CITY           SKY/WX    TMP DP  RH WIND       PRES   REMARKS
Chas Airport   FAIR      77  66  68 S10       30.41S
Seattle        CLOUDY    33  22  63 S10       30.27F WCI  25
Charlotte      FAIR      78  63  59 S10       30.37F
Dallas DFW     RAIN      36  34  92 N7        30.21R FOG     WCI  30
Dallas Love    LGT RAIN  36  35  96 N8        30.23F WCI  30
Philladelphia  FAIR      74  60  61 SW12      30.25S
Wash National  FAIR      79  61  53 S15G22    30.25S
Baltimore      FAIR      79  61  53 SW9       30.23F
Miami          PTSUNNY   78  68  71 E18       30.30S
Detroit        CLOUDY    42  32  67 N10       30.53S
Newark         FAIR      78  59  51 SW14      30.20R
Laguardia      FAIR      77  59  53 SW10      30.20R
J F K          FAIR      58  51  78 S9        30.23R
Boston Logan   FAIR      66  55  67 S15       30.10R
Ft. Lauderdale FAIR      78  69  73 E17       30.29S
Chicago O`Hare CLOUDY    31  19  61 NE10      30.57F WCI  22
Chicago Midway CLOUDY    31  20  63 NE13      30.59R WCI  21
Houston Bush   TSTM      61  59  93 NW10      30.06R
Houston Hobby  LGT RAIN  63  63 100 NW9       30.04R
Nashville      CLOUDY    58  54  86 N7        30.31S
Atlanta        PTSUNNY   77  65  66 S10       30.34S

$$

GAZ044-118-TXZ119-213-NCZ071-DCZ001-MDZ014-506-PAZ021-071-NJZ106-
NYZ176-178-MAZ106-OHZ011-021-055-MIZ076-KYZ091-ILZ014-INZ047-
MNZ060-ONZ431-212300-

...Gateway Observations for Savannah International...

CITY           SKY/WX    TMP DP  RH WIND       PRES   REMARKS
Savannah Arpt  FAIR      79  65  62 S14       30.38S
Atlanta        PTSUNNY   77  65  66 S10       30.34S
Charlotte      FAIR      78  63  59 S10       30.37F
Dallas DFW     RAIN      36  34  92 N7        30.21R FOG     WCI  30
Houston Bush   TSTM      61  59  93 NW10      30.06R
Wash National  FAIR      79  61  53 S15G22    30.25S
Wash Dulles    FAIR      79  61  53 S13G24    30.25R
Baltimore      FAIR      79  61  53 SW9       30.23F
Philadelphia   FAIR      74  60  61 SW12      30.25S
Newark         FAIR      78  59  51 SW14      30.20R
Laguardia      FAIR      77  59  53 SW10      30.20R
J F K          FAIR      58  51  78 S9        30.23R
Boston         FAIR      66  55  67 S15       30.10R
Pittsburg      CLOUDY    46  41  82 N13       30.41R
Akron          LGT RAIN  39  34  82 N15       30.47R WCI  31
Cleveland      CLOUDY    36  34  92 NE13      30.55R WCI  27
Cincinnati     LGT RAIN  46  45  96 N13       30.41R
Columbus       CLOUDY    47  44  91 N10       30.42R
Detroit        CLOUDY    42  32  67 N10       30.53S
Chicago O`Hare CLOUDY    31  19  61 NE10      30.57F WCI  22
Minneapolis    FAIR      19   3  49 SW7       30.63S WCI  10
Indianapolis   LGT RAIN  37  34  89 NE10      30.48R FOG     WCI  30
Toronto Canada NOT AVBL

$$




USA.gov is the U.S. government's official web portal to all federal, state and local government web resources and services.